World > North America > United States > Ohio > McComb

Hourly McComb, OH Regional Weather

Feedback E-mail the Weather

Quick WX

McComb, OH Weather Maps

°F °C°F °C
Mccomb Weather Map
UTC Time: 8/15/2022, 06:21
Your Time:

McComb, OH Regional Weather

Expires:202208150700;;123878
ASUS41 KCLE 150610
RWRCLE
OHIO REGIONAL WEATHER ROUNDUP
NATIONAL WEATHER SERVICE CLEVELAND, OH
200 AM EDT MON AUG 15 2022

NOTE: "FAIR" INDICATES FEW OR NO CLOUDS BELOW 12,000 FEET WITH NO
SIGNIFICANT WEATHER AND/OR OBSTRUCTIONS TO VISIBILITY.


OHZ001>008-015>018-024>027-034-035-043-044-150700-
   NORTHWEST OHIO
  
CITY           SKY/WX    TMP DP  RH WIND       PRES   REMARKS
DEFIANCE       CLOUDY    63  61  93 CALM      29.98S                  
FINDLAY        CLOUDY    67  62  84 E5        29.96F                  
TOLEDO EXPRESS MOCLDY    65  61  87 CALM      29.98F                  
TOLEDO EXEC    CLOUDY    67  62  84 CALM      29.98F                  
LIMA           CLOUDY    64  60  87 E7        29.96F                  
$$


SKY/WX - Weather  TMP - Temperature  DP - Dew Point  RH - Humidity
WIND - Wind Direction/Speed PRES - Barometric Pressure VSB - Visibility
WCI - Wind Chill Index E13G22 Wind - East Wind 13 mph/Gusts of 22 mph

Trending Headlines

McComb Radar Loop



McComb Quick Facts


National Two Day Weather Forecast


E-mail the McComb Weather Forecast

Voice your opinion or tell us about page issues...